| time (UTC) | temp C | wind direction | speed KPH | gust KPH | rain 1hr cm | rain 24hr cm | rain mn cm | humidity % | barometer mb |
| 20260506072743 | 6 | 32 | 0.0 | 0.0 | 0.00 | 0.00 | 0.00 | 65 | 1017.3 |
| 20260506071714 | 6 | 13 | 0.0 | 3.2 | 0.00 | 0.00 | 0.00 | 66 | 1017.4 |
| 20260506070729 | 6 | 85 | 0.0 | 0.0 | 0.00 | 0.00 | 0.00 | 67 | 1017.4 |
| 20260506061705 | 5 | 6 | 0.0 | 0.0 | 0.00 | 0.00 | 0.00 | 76 | 1017.1 |
| 20260506060653 | 5 | 42 | 0.0 | 0.0 | 0.00 | 0.00 | 0.00 | 77 | 1017.1 |
| 20260506050615 | 4 | 30 | 0.0 | 0.0 | 0.00 | 0.00 | 0.00 | 77 | 1017.1 |
| 20260506044530 | 4 | 30 | 0.0 | 0.0 | 0.00 | 0.00 | 0.00 | 77 | 1017.1 |
| 20260506043514 | 4 | 30 | 0.0 | 0.0 | 0.00 | 0.00 | 0.00 | 76 | 1017.1 |
| 20260506042454 | 4 | 30 | 0.0 | 0.0 | 0.00 | 0.00 | 0.00 | 76 | 1017.0 |
| 20260506041441 | 4 | 30 | 0.0 | 0.0 | 0.00 | 0.00 | 0.00 | 76 | 1017.1 |
| 20260506040438 | 4 | 30 | 0.0 | 0.0 | 0.00 | 0.00 | 0.00 | 76 | 1017.0 |
| 20260506034314 | 4 | 30 | 0.0 | 0.0 | 0.00 | 0.00 | 0.00 | 76 | 1017.3 |
| 20260506033331 | 4 | 30 | 0.0 | 0.0 | 0.00 | 0.00 | 0.00 | 75 | 1017.3 |
| 20260506032340 | 4 | 30 | 0.0 | 0.0 | 0.00 | 0.00 | 0.00 | 75 | 1017.3 |
| 20260506031309 | 5 | 30 | 0.0 | 0.0 | 0.00 | 0.00 | 0.00 | 74 | 1017.3 |
| 20260506030334 | 5 | 30 | 0.0 | 0.0 | 0.00 | 0.00 | 0.00 | 73 | 1017.4 |
| 20260506025305 | 5 | 30 | 0.0 | 0.0 | 0.00 | 0.00 | 0.00 | 73 | 1017.3 |
| 20260506024325 | 5 | 30 | 0.0 | 0.0 | 0.00 | 0.00 | 0.00 | 73 | 1017.3 |
| 20260506023328 | 5 | 30 | 0.0 | 0.0 | 0.00 | 0.00 | 0.00 | 73 | 1017.3 |
| 20260506022340 | 5 | 28 | 0.0 | 0.0 | 0.00 | 0.00 | 0.00 | 73 | 1017.4 |
| 20260506021344 | 5 | 29 | 0.0 | 0.0 | 0.00 | 0.00 | 0.00 | 73 | 1017.4 |
| 20260506014027 | 5 | 29 | 0.0 | 0.0 | 0.00 | 0.00 | 0.00 | 73 | 1017.6 |
| 20260506013012 | 5 | 28 | 0.0 | 0.0 | 0.00 | 0.00 | 0.00 | 73 | 1017.6 |
| 20260506012000 | 5 | 33 | 0.0 | 0.0 | 0.00 | 0.00 | 0.00 | 73 | 1017.7 |
| 20260506010934 | 5 | 33 | 0.0 | 0.0 | 0.00 | 0.00 | 0.00 | 72 | 1017.7 |
| 20260506005912 | 5 | 33 | 0.0 | 0.0 | 0.00 | 0.00 | 0.00 | 72 | 1017.7 |
| 20260506004932 | 5 | 33 | 0.0 | 0.0 | 0.00 | 0.00 | 0.00 | 72 | 1017.9 |
| 20260506003912 | 6 | 33 | 0.0 | 0.0 | 0.00 | 0.00 | 0.00 | 71 | 1017.8 |
| 20260506002904 | 6 | 53 | 0.0 | 0.0 | 0.00 | 0.00 | 0.00 | 70 | 1017.7 |
| 20260506001846 | 6 | 26 | 0.0 | 0.0 | 0.00 | 0.00 | 0.00 | 70 | 1017.7 |
| 20260506000856 | 6 | 26 | 0.0 | 0.0 | 0.00 | 0.00 | 0.00 | 70 | 1017.8 |
| 20260505235852 | 6 | 25 | 0.0 | 0.0 | 0.00 | 0.00 | 0.00 | 69 | 1017.8 |
| 20260505234837 | 6 | 86 | 0.0 | 0.0 | 0.00 | 0.00 | 0.00 | 69 | 1017.7 |
| 20260505233814 | 6 | 44 | 0.0 | 0.0 | 0.00 | 0.00 | 0.00 | 68 | 1017.7 |
| 20260505232822 | 6 | 47 | 0.0 | 0.0 | 0.00 | 0.00 | 0.00 | 68 | 1017.9 |
| 20260505231747 | 6 | 125 | 0.0 | 0.0 | 0.00 | 0.00 | 0.00 | 68 | 1017.9 |
| 20260505225545 | 6 | 27 | 0.0 | 0.0 | 0.00 | 0.00 | 0.00 | 68 | 1017.9 |
| 20260505224532 | 6 | 15 | 0.0 | 0.0 | 0.00 | 0.00 | 0.00 | 68 | 1018.0 |
| 20260505222324 | 6 | 52 | 0.0 | 0.0 | 0.00 | 0.00 | 0.00 | 68 | 1018.0 |
| 20260505221338 | 6 | 85 | 0.0 | 0.0 | 0.00 | 0.00 | 0.00 | 68 | 1018.0 |
| 20260505220355 | 6 | 19 | 0.0 | 0.0 | 0.00 | 0.00 | 0.00 | 67 | 1018.0 |
| 20260505215418 | 6 | 103 | 0.0 | 0.0 | 0.00 | 0.00 | 0.00 | 67 | 1018.0 |
| 20260505214352 | 6 | 354 | 0.0 | 0.0 | 0.00 | 0.00 | 0.00 | 67 | 1018.0 |
| 20260505213331 | 6 | 67 | 0.0 | 0.0 | 0.00 | 0.00 | 0.00 | 67 | 1018.0 |
| 20260505212338 | 6 | 103 | 0.0 | 1.6 | 0.00 | 0.00 | 0.00 | 66 | 1018.0 |
| 20260505211315 | 7 | 64 | 0.0 | 1.6 | 0.00 | 0.00 | 0.00 | 66 | 1017.9 |
| 20260505210311 | 7 | 19 | 0.0 | 1.6 | 0.00 | 0.00 | 0.00 | 66 | 1017.9 |
| 20260505205258 | 7 | 30 | 0.0 | 0.0 | 0.00 | 0.00 | 0.00 | 66 | 1017.8 |
| 20260505204232 | 7 | 84 | 0.0 | 0.0 | 0.00 | 0.00 | 0.00 | 65 | 1017.7 |
| 20260505203230 | 7 | 56 | 0.0 | 0.0 | 0.00 | 0.00 | 0.00 | 65 | 1017.8 |
| 20260505202213 | 7 | 103 | 0.0 | 0.0 | 0.00 | 0.00 | 0.00 | 64 | 1017.8 |
| 20260505201231 | 7 | 15 | 0.0 | 3.2 | 0.00 | 0.00 | 0.00 | 64 | 1017.7 |
| 20260505195101 | 7 | 12 | 0.0 | 0.0 | 0.00 | 0.00 | 0.00 | 64 | 1017.6 |
| 20260505194043 | 7 | 16 | 0.0 | 4.8 | 0.00 | 0.00 | 0.00 | 64 | 1017.5 |
| 20260505193059 | 7 | 65 | 0.0 | 1.6 | 0.00 | 0.00 | 0.00 | 65 | 1017.4 |
| 20260505192027 | 8 | 84 | 0.0 | 3.2 | 0.00 | 0.00 | 0.00 | 65 | 1017.2 |
| 20260505191049 | 8 | 37 | 0.0 | 9.7 | 0.00 | 0.00 | 0.00 | 64 | 1017.2 |
| 20260505190056 | 8 | 353 | 0.0 | 4.8 | 0.00 | 0.00 | 0.00 | 64 | 1017.0 |
| 20260505185038 | 8 | 33 | 0.0 | 8.0 | 0.00 | 0.00 | 0.00 | 64 | 1017.0 |
| 20260505184026 | 8 | 27 | 0.0 | 3.2 | 0.00 | 0.00 | 0.00 | 64 | 1017.0 |
| 20260505182959 | 8 | 75 | 0.0 | 11.3 | 0.00 | 0.00 | 0.00 | 63 | 1016.9 |
| 20260505181941 | 8 | 78 | 0.0 | 11.3 | 0.00 | 0.00 | 0.00 | 62 | 1016.9 |
| 20260505180931 | 8 | 337 | 0.0 | 14.5 | 0.00 | 0.00 | 0.00 | 62 | 1016.8 |
| 20260505175930 | 9 | 295 | 0.0 | 14.5 | 0.00 | 0.00 | 0.00 | 62 | 1016.8 |
| 20260505173806 | 9 | 356 | 0.0 | 12.9 | 0.00 | 0.00 | 0.00 | 62 | 1016.9 |
| 20260505172733 | 10 | 25 | 0.0 | 12.9 | 0.00 | 0.00 | 0.00 | 61 | 1016.8 |
| 20260505171715 | 10 | 8 | 0.0 | 11.3 | 0.00 | 0.00 | 0.00 | 61 | 1016.8 |
| 20260505165607 | 10 | 30 | 0.0 | 8.0 | 0.00 | 0.00 | 0.00 | 62 | 1016.7 |
| 20260505164551 | 11 | 46 | 0.0 | 8.0 | 0.00 | 0.00 | 0.00 | 62 | 1016.6 |
| 20260505162505 | 11 | 51 | 0.0 | 9.7 | 0.00 | 0.00 | 0.00 | 62 | 1016.4 |
| 20260505160343 | 11 | 23 | 0.0 | 11.3 | 0.00 | 0.00 | 0.00 | 59 | 1016.5 |
| 20260505153350 | 12 | 8 | 0.0 | 11.3 | 0.00 | 0.00 | 0.00 | 57 | 1016.4 |
| 20260505152333 | 12 | 105 | 1.6 | 12.9 | 0.00 | 0.00 | 0.00 | 60 | 1016.4 |
| 20260505151333 | 12 | 350 | 1.6 | 14.5 | 0.00 | 0.00 | 0.00 | 56 | 1016.5 |
| 20260505150310 | 12 | 98 | 0.0 | 14.5 | 0.00 | 0.00 | 0.00 | 59 | 1016.5 |
| 20260505124754 | 13 | 30 | 0.0 | 0.0 | 0.00 | 0.00 | 0.00 | 55 | 1015.8 |
| 20260505123748 | 13 | 37 | 0.0 | 6.4 | 0.00 | 0.00 | 0.00 | 47 | 1015.8 |
| 20260505122751 | 15 | 117 | 0.0 | 0.0 | 0.00 | 0.00 | 0.00 | 39 | 1015.8 |
| 20260505121743 | 15 | 103 | 0.0 | 0.0 | 0.00 | 0.00 | 0.00 | 40 | 1015.9 |
| 20260505120757 | 14 | 34 | 0.0 | 3.2 | 0.00 | 0.00 | 0.00 | 48 | 1016.0 |
| 20260505115747 | 12 | 23 | 0.0 | 0.0 | 0.00 | 0.00 | 0.00 | 54 | 1016.0 |
| 20260505112513 | 11 | 15 | 0.0 | 6.4 | 0.00 | 0.00 | 0.00 | 56 | 1016.0 |
| 20260505110343 | 11 | 20 | 0.0 | 11.3 | 0.00 | 0.00 | 0.00 | 58 | 1016.0 |
| 20260505101306 | 12 | 13 | 0.0 | 0.0 | 0.00 | 0.00 | 0.00 | 58 | 1015.9 |
| 20260505100242 | 11 | 11 | 0.0 | 6.4 | 0.00 | 0.00 | 0.00 | 61 | 1015.9 |
| 20260505094056 | 11 | 1 | 0.0 | 6.4 | 0.00 | 0.00 | 0.00 | 64 | 1015.8 |
| 20260505093039 | 10 | 23 | 0.0 | 6.4 | 0.00 | 0.00 | 0.00 | 64 | 1015.8 |
| 20260505092046 | 10 | 6 | 0.0 | 8.0 | 0.00 | 0.00 | 0.00 | 67 | 1015.7 |
| 20260505091049 | 9 | 346 | 0.0 | 8.0 | 0.00 | 0.00 | 0.00 | 67 | 1015.7 |
| 20260505090020 | 9 | 41 | 0.0 | 4.8 | 0.00 | 0.00 | 0.00 | 71 | 1015.7 |
| 20260505083809 | 9 | 0 | 0.0 | 3.2 | 0.00 | 0.00 | 0.00 | 74 | 1015.7 |
| 20260505080457 | 10 | 15 | 0.0 | 4.8 | 0.00 | 0.00 | 0.00 | 72 | 1015.4 |
| 20260505075452 | 10 | 345 | 0.0 | 3.2 | 0.00 | 0.00 | 0.00 | 72 | 1015.4 |
| 20260505074424 | 10 | 357 | 0.0 | 0.0 | 0.00 | 0.00 | 0.00 | 72 | 1015.4 |
| 20260505073403 | 10 | 358 | 0.0 | 0.0 | 0.00 | 0.00 | 0.00 | 75 | 1015.3 |